Weather History for Harrison, AR

Change the Weather History Date:

Thursday, January 23, 2014

  Actual Average Record
Temperature  
Mean Temperature 18 °F 37 °F  
Max Temperature 29 °F 47 °F 75 °F (1943)
Min Temperature 6 °F 27 °F -17 °F (1926)
Degree Days  
Heating Degree Days 47 28  
Month to date heating degree days 730 664  
Since 1 July heating degree days 2421 2263  
Cooling Degree Days 0 0  
Month to date cooling degree days 0 0  
Year to date cooling degree days 0 0  
Moisture  
Dew Point -4 °F    
Average Humidity 46    
Maximum Humidity 63    
Minimum Humidity 28    
Precipitation  
Precipitation 0.00 in 0.08 in 1.84 in (1920)
Month to date precipitation 1.03 1.92  
Year to date precipitation 1.03 1.92  
Snow  
Snow 0.00 in 0.20 in 6.00 in (1956)
Month to date snowfall 1.0 2.8  
Since 1 July snowfall 10.0 4.6  
Snow Depth 0.00 in    
Sea Level Pressure  
Sea Level Pressure 30.64 in    
Wind  
Wind Speed 8 mph (NNW)    
Max Wind Speed 16 mph    
Max Gust Speed 22 mph    
Visibility 10 miles    
Events      
T = Trace of Precipitation, MM = Missing Value Source: NWS Daily Summary

Daily Weather History Graph

Daily Weather History Graph

Search for Another Location

Airport:

Trip Planner

Search our weather history database for the weather conditions in past years. The results will help you decide how hot, cold, wet, or windy it might be!

Date:

Astronomy

Jan. 23, 2014 Rise Set
Actual Time 7:19 AM CST 5:29 PM CST
Civil Twilight 6:52 AM CST 5:57 PM CST
Nautical Twilight 6:20 AM CST 6:28 PM CST
Astronomical Twilight 5:50 AM CST 6:59 PM CST
Moon No Moon Rise 11:08 AM CST (1/23)
Length of Visible Light 11h 05m
Length of Day
10h 09m
Waning Gibbous, 55% of the Moon is Illuminated
Jan 23
Waning Gibbous
Jan 23
Last Quarter
Jan 30
New
Feb 6
First Quarter
Feb 14
Full

Hourly Weather History & Observations

Time (CST) Temp. Windchill Dew Point Humidity Pressure Visibility Wind Dir Wind Speed Gust Speed Precip Events Conditions
12:53 AM 28.9 °F 21.1 °F 10.9 °F 47% 30.28 in 10.0 mi NNW 8.1 mph - N/A   Partly Cloudy
1:53 AM 25.0 °F 13.6 °F 10.9 °F 55% 30.34 in 10.0 mi North 12.7 mph 21.9 mph N/A   Partly Cloudy
2:53 AM 23.0 °F 13.9 °F 10.9 °F 60% 30.39 in 10.0 mi North 8.1 mph 18.4 mph N/A   Mostly Cloudy
3:53 AM 19.9 °F 8.6 °F 3.0 °F 48% 30.43 in 10.0 mi North 10.4 mph 19.6 mph N/A   Partly Cloudy
4:53 AM 17.1 °F 4.3 °F -2.9 °F 41% 30.46 in 10.0 mi North 11.5 mph 18.4 mph N/A   Clear
5:53 AM 15.1 °F 5.2 °F -7.1 °F 37% 30.52 in 10.0 mi North 6.9 mph 16.1 mph N/A   Clear
6:53 AM 12.0 °F -1.3 °F -7.1 °F 42% 30.57 in 10.0 mi NNW 10.4 mph 18.4 mph N/A   Mostly Cloudy
7:53 AM 10.9 °F -3.4 °F -6.0 °F 47% 30.61 in 10.0 mi NNW 11.5 mph 18.4 mph N/A   Overcast
8:53 AM 12.0 °F -1.3 °F -5.1 °F 46% 30.64 in 10.0 mi North 10.4 mph 17.3 mph N/A   Mostly Cloudy
9:53 AM 10.9 °F -1.8 °F -7.1 °F 44% 30.70 in 10.0 mi North 9.2 mph - N/A   Overcast
10:53 AM 14.0 °F 1.2 °F -6.0 °F 41% 30.72 in 10.0 mi NNW 10.4 mph - N/A   Overcast
11:53 AM 14.0 °F 0.5 °F -9.0 °F 35% 30.72 in 10.0 mi NNW 11.5 mph - N/A   Overcast
12:53 PM 16.0 °F 3.6 °F -8.0 °F 34% 30.71 in 10.0 mi NNW 10.4 mph - N/A   Overcast
1:53 PM 17.1 °F 6.6 °F -9.9 °F 30% 30.71 in 10.0 mi NNW 8.1 mph - N/A   Mostly Cloudy
2:53 PM 18.0 °F 6.9 °F -11.0 °F 27% 30.70 in 10.0 mi North 9.2 mph - N/A   Partly Cloudy
3:53 PM 17.1 °F 7.6 °F -8.0 °F 33% 30.71 in 10.0 mi NNW 6.9 mph - N/A   Clear
4:53 PM 16.0 °F 5.3 °F -9.0 °F 32% 30.73 in 10.0 mi NNW 8.1 mph - N/A   Clear
5:53 PM 14.0 °F 5.1 °F -5.1 °F 43% 30.75 in 10.0 mi NW 5.8 mph - N/A   Clear
6:53 PM 10.9 °F 2.9 °F -6.0 °F 47% 30.77 in 10.0 mi NW 4.6 mph - N/A   Clear
7:53 PM 10.0 °F 1.8 °F -6.0 °F 48% 30.78 in 10.0 mi NNW 4.6 mph - N/A   Clear
8:53 PM 8.1 °F -0.5 °F -6.0 °F 53% 30.79 in 10.0 mi NW 4.6 mph - N/A   Clear
9:53 PM 6.1 °F - -4.0 °F 63% 30.79 in 10.0 mi Calm Calm - N/A   Clear
10:53 PM 6.1 °F - -5.1 °F 60% 30.79 in 10.0 mi Calm Calm - N/A   Clear
11:53 PM 6.1 °F - -4.0 °F 63% 30.78 in 10.0 mi Calm Calm - N/A   Clear